• In Netherlands
  • List of Countries
  • For 7 days
  • Water Temperature
  • Satellite Maps
  • Weather Map
  • Weather Widgets
  • user-avatar
    Login

    Hourly Weather Sumgayit

    Today, 23 November, Thursday

    Time Temperature Precipitation Wind Pressure Humidity
    00:00 +5°C° 0.2 mm 10 mps 738 mmHg 76%
    01:00 +5°C° 0.4 mm 9 mps 738 mmHg 76%
    02:00 +5°C° 0.4 mm 8 mps 738 mmHg 77%
    03:00 +5°C° 0.4 mm 8 mps 738 mmHg 77%
    04:00 +4°C° 0.4 mm 7 mps 738 mmHg 78%
    05:00 +4°C° 0.4 mm 7 mps 738 mmHg 79%
    06:00 +4°C° 0.4 mm 6 mps 738 mmHg 79%
    07:00 +5°C° 0.3 mm 5 mps 739 mmHg 79%
    08:00 +5°C° 0.3 mm 4 mps 739 mmHg 79%
    09:00 +5°C° 0.3 mm 4 mps 739 mmHg 79%
    10:00 +7°C° 0.1 mm 3 mps 739 mmHg 77%
    11:00 +7°C° 0.1 mm 3 mps 739 mmHg 75%
    12:00 +7°C° 0.1 mm 3 mps 739 mmHg 73%
    13:00 +8°C° 0 mm 3 mps 738 mmHg 68%
    14:00 +7°C° 0 mm 4 mps 738 mmHg 62%
    15:00 +8°C° 0 mm 5 mps 738 mmHg 57%
    16:00 +8°C° 0 mm 5 mps 738 mmHg 55%
    17:00 +7°C° 0 mm 5 mps 739 mmHg 53%
    18:00 +7°C° 0 mm 5 mps 739 mmHg 51%
    19:00 +7°C° 0 mm 5 mps 739 mmHg 49%
    20:00 +7°C° 0 mm 5 mps 740 mmHg 48%
    21:00 +6°C° 0 mm 5 mps 740 mmHg 46%
    22:00 +6°C° 0 mm 5 mps 740 mmHg 51%
    23:00 +6°C° 0 mm 5 mps 740 mmHg 57%

    Tomorrow, 24 November, Friday

    Time Temperature Precipitation Wind Pressure Humidity
    00:00 +6°C° 0 mm 5 mps 741 mmHg 62%
    01:00 +6°C° 0 mm 5 mps 741 mmHg 64%
    02:00 +6°C° 0 mm 5 mps 741 mmHg 66%
    03:00 +6°C° 0 mm 5 mps 741 mmHg 68%
    04:00 +6°C° 0.1 mm 5 mps 741 mmHg 70%
    05:00 +5°C° 0.1 mm 5 mps 742 mmHg 71%
    06:00 +5°C° 0.1 mm 5 mps 742 mmHg 73%
    07:00 +5°C° 0 mm 5 mps 742 mmHg 69%
    08:00 +5°C° 0 mm 6 mps 742 mmHg 65%
    09:00 +5°C° 0 mm 6 mps 743 mmHg 62%
    10:00 +5°C° 0 mm 6 mps 743 mmHg 57%
    11:00 +7°C° 0 mm 6 mps 743 mmHg 52%
    12:00 +7°C° 0 mm 5 mps 743 mmHg 47%
    13:00 +7°C° 0 mm 5 mps 743 mmHg 45%
    14:00 +7°C° 0 mm 5 mps 743 mmHg 44%
    15:00 +7°C° 0 mm 5 mps 743 mmHg 42%
    16:00 +7°C° 0 mm 5 mps 743 mmHg 45%
    17:00 +6°C° 0 mm 5 mps 743 mmHg 47%
    18:00 +6°C° 0 mm 5 mps 743 mmHg 50%
    19:00 +5°C° 0 mm 4 mps 743 mmHg 50%
    20:00 +5°C° 0 mm 4 mps 744 mmHg 50%
    21:00 +4°C° 0 mm 4 mps 744 mmHg 50%
    22:00 +4°C° 0 mm 4 mps 744 mmHg 49%
    23:00 +4°C° 0 mm 3 mps 744 mmHg 48%

    Day after tomorrow, 25 November, Saturday

    Time Temperature Precipitation Wind Pressure Humidity
    00:00 +4°C° 0 mm 3 mps 744 mmHg 47%
    01:00 +4°C° 0 mm 3 mps 744 mmHg 47%
    02:00 +3°C° 0 mm 3 mps 744 mmHg 46%
    03:00 +3°C° 0 mm 3 mps 744 mmHg 45%
    04:00 +3°C° 0 mm 4 mps 744 mmHg 46%
    05:00 +3°C° 0 mm 4 mps 744 mmHg 46%
    06:00 +2°C° 0 mm 5 mps 745 mmHg 47%
    07:00 +3°C° 0.2 mm 6 mps 745 mmHg 49%
    08:00 +3°C° 0.2 mm 7 mps 746 mmHg 51%
    09:00 +4°C° 0.2 mm 8 mps 746 mmHg 54%
    10:00 +4°C° 0.1 mm 7 mps 747 mmHg 53%
    11:00 +5°C° 0.1 mm 7 mps 747 mmHg 53%
    12:00 +7°C° 0.1 mm 6 mps 747 mmHg 52%
    13:00 +5°C° 0.2 mm 6 mps 747 mmHg 52%
    14:00 +5°C° 0.2 mm 6 mps 748 mmHg 51%
    15:00 +5°C° 0.2 mm 6 mps 748 mmHg 51%
    16:00 +5°C° 0.1 mm 6 mps 749 mmHg 54%
    17:00 +4°C° 0.1 mm 6 mps 749 mmHg 58%
    18:00 +4°C° 0.1 mm 7 mps 750 mmHg 61%
    19:00 +3°C° 0 mm 7 mps 750 mmHg 63%
    20:00 +3°C° 0 mm 6 mps 751 mmHg 65%
    21:00 +3°C° 0 mm 6 mps 751 mmHg 67%
    22:00 +3°C° 0 mm 6 mps 751 mmHg 68%
    23:00 +3°C° 0 mm 5 mps 751 mmHg 68%

    26 November, Sunday

    Time Temperature Precipitation Wind Pressure Humidity
    00:00 +3°C° 0 mm 5 mps 751 mmHg 69%
    01:00 +2°C° 0 mm 5 mps 751 mmHg 70%
    02:00 +3°C° 0 mm 4 mps 751 mmHg 71%
    03:00 +3°C° 0 mm 4 mps 751 mmHg 72%
    04:00 +3°C° 0 mm 4 mps 751 mmHg 73%
    05:00 +3°C° 0 mm 3 mps 752 mmHg 73%
    06:00 +3°C° 0 mm 3 mps 752 mmHg 74%
    07:00 +3°C° 0 mm 3 mps 752 mmHg 71%
    08:00 +4°C° 0 mm 3 mps 752 mmHg 68%
    09:00 +5°C° 0 mm 3 mps 752 mmHg 65%
    10:00 +5°C° 0 mm 3 mps 752 mmHg 62%
    11:00 +7°C° 0 mm 2 mps 752 mmHg 60%
    12:00 +7°C° 0 mm 2 mps 751 mmHg 57%
    13:00 +7°C° 0 mm 2 mps 751 mmHg 55%
    14:00 +7°C° 0 mm 2 mps 751 mmHg 54%
    15:00 +7°C° 0 mm 2 mps 750 mmHg 53%
    16:00 +7°C° 0 mm 2 mps 750 mmHg 55%
    17:00 +7°C° 0 mm 2 mps 750 mmHg 56%
    18:00 +6°C° 0 mm 2 mps 750 mmHg 58%
    19:00 +5°C° 0 mm 3 mps 750 mmHg 58%
    20:00 +5°C° 0 mm 3 mps 750 mmHg 57%
    21:00 +5°C° 0 mm 3 mps 750 mmHg 57%
    22:00 +5°C° 0 mm 3 mps 750 mmHg 59%
    23:00 +4°C° 0 mm 4 mps 749 mmHg 60%

    27 November, Monday

    Time Temperature Precipitation Wind Pressure Humidity
    00:00 +4°C° 0 mm 4 mps 749 mmHg 62%
    01:00 +4°C° 0 mm 4 mps 749 mmHg 61%
    02:00 +4°C° 0 mm 4 mps 748 mmHg 61%
    03:00 +3°C° 0 mm 5 mps 748 mmHg 60%
    04:00 +3°C° 0 mm 5 mps 748 mmHg 58%
    05:00 +4°C° 0 mm 4 mps 747 mmHg 56%
    06:00 +3°C° 0 mm 4 mps 747 mmHg 54%
    07:00 +4°C° 0 mm 4 mps 747 mmHg 50%
    08:00 +5°C° 0 mm 4 mps 747 mmHg 46%
    09:00 +5°C° 0 mm 4 mps 747 mmHg 42%
    10:00 +6°C° 0 mm 4 mps 747 mmHg 39%
    11:00 +7°C° 0 mm 4 mps 747 mmHg 37%
    12:00 +8°C° 0 mm 4 mps 746 mmHg 35%
    13:00 +8°C° 0 mm 4 mps 746 mmHg 35%
    14:00 +8°C° 0 mm 4 mps 745 mmHg 35%
    15:00 +10°C° 0 mm 4 mps 745 mmHg 34%
    16:00 +8°C° 0 mm 4 mps 745 mmHg 37%
    17:00 +7°C° 0 mm 4 mps 745 mmHg 39%
    18:00 +6°C° 0 mm 4 mps 745 mmHg 41%
    19:00 +6°C° 0 mm 4 mps 745 mmHg 41%
    20:00 +6°C° 0 mm 4 mps 745 mmHg 41%
    21:00 +6°C° 0 mm 4 mps 745 mmHg 41%
    22:00 +6°C° 0 mm 4 mps 745 mmHg 41%
    23:00 +6°C° 0 mm 4 mps 744 mmHg 41%

    28 November, Tuesday

    Time Temperature Precipitation Wind Pressure Humidity
    00:00 +5°C° 0 mm 4 mps 744 mmHg 41%
    01:00 +6°C° 0 mm 4 mps 744 mmHg 45%
    02:00 +6°C° 0 mm 4 mps 744 mmHg 49%
    03:00 +6°C° 0 mm 4 mps 743 mmHg 53%
    04:00 +6°C° 0 mm 4 mps 743 mmHg 56%
    05:00 +6°C° 0 mm 4 mps 743 mmHg 58%
    06:00 +6°C° 0 mm 4 mps 743 mmHg 60%
    07:00 +7°C° 0 mm 4 mps 743 mmHg 59%
    08:00 +7°C° 0 mm 4 mps 743 mmHg 58%
    09:00 +8°C° 0 mm 4 mps 743 mmHg 56%
    10:00 +8°C° 0 mm 5 mps 743 mmHg 54%
    11:00 +9°C° 0 mm 5 mps 743 mmHg 52%
    12:00 +10°C° 0 mm 5 mps 742 mmHg 50%
    13:00 +10°C° 0 mm 5 mps 742 mmHg 48%
    14:00 +10°C° 0 mm 5 mps 742 mmHg 45%
    15:00 +10°C° 0 mm 5 mps 742 mmHg 42%
    16:00 +10°C° 0 mm 4 mps 742 mmHg 41%
    17:00 +10°C° 0 mm 4 mps 742 mmHg 41%
    18:00 +8°C° 0 mm 4 mps 742 mmHg 40%
    19:00 +9°C° 0 mm 3 mps 742 mmHg 39%
    20:00 +8°C° 0 mm 3 mps 742 mmHg 38%
    21:00 +8°C° 0 mm 3 mps 742 mmHg 37%
    22:00 +8°C° 0 mm 3 mps 742 mmHg 36%
    23:00 +8°C° 0 mm 3 mps 742 mmHg 35%
    Show more